Terminal Aerodrome Forecast
Issued by NWS Birmingham, AL

Home | Current Version | Previous Version | Text Only | Print | Product List | Glossary On
Versions: 1 2 3 4 5 6 7 8 9 10 11 12
000
FTUS44 KBMX 062320
TAFBHM
TAF
KBHM 062320Z 0700/0724 00000KT P6SM SKC
     FM071500 10005KT P6SM SKC=

USA.gov is the U.S. government's official web portal to all federal, state and local government web resources and services.